Карточка аэропорта UNTT

Внимание!
Информация на этой странице в стадии наполнения.
Если вы не увидели какой-то информации, или заметили неточность - пожалуйста сообщите нам!
Спасибо!
Команда RU-STAFF
Название аэропортаБогашево
Название аэропорта (англ.)Bogashevo
Превышение597 ft. (182 m.)
Координаты56°22.2', 85°12.6'
Высота перехода1000m
Эшелон переходаQFE>=743mm:FL040; QFE<743mm:FL050
Коды ответчика5230-5247
Зона ОрВДНовосибирск РПИ (UNNT)
Данные METARUNTT 160830Z 10004MPS CAVOK 29/15 Q1008 R21/090060 NOSIG RMK QFE740
Проноз погоды (TAF)UNTT 160800Z 1609/1618 11005G10MPS 9999 SCT040CB BECMG 1611/1615 07003G08MPS
NOTAMshow/hide NOTAM
AWOS   TABLE

Информация о ВПП

ВПП Длина ВПП (м.) Покрытие Курс ВПП Частота ILS
032500Асфальтобетон25 
212500Асфальтобетон205110.3

Диспетчерские позиции




Спутниковое изображение